CAPE
1 0 0 0 1 0 3 12 14 17 9 15 7 7 10 8 6 9 16 13 51 39 35 51 29 29 45 33 25 15 11 15 15 13 8 0 0 3 23 53 57 59 61
1 0 0 0 0 0 4 13 16 11 7 16 3 6 10 4 4 11 16 6 39 54 40 25 33 45 19 33 22 29 14 17 12 8 13 9 0 0 3 21 51 57 43
22 0 0 0 0 0 0 7 6 9 11 21 1 13 10 11 8 8 14 3 13 23 39 34 38 20 30 30 23 21 10 11 4 2 7 14 8 0 0 0 23 49 53
0 0 0 0 0 0 0 0 5 6 9 13 6 12 11 2 8 8 8 3 12 7 12 34 28 19 29 8 28 13 9 12 10 1 7 3 4 15 0 0 0 28 52
2 0 0 0 0 0 0 0 2 8 8 8 9 9 12 5 9 2 14 13 10 12 0 6 13 10 35 27 26 16 4 7 12 4 4 6 2 16 20 1 4 1 25
1 0 0 0 0 0 0 0 3 11 13 13 6 11 11 10 17 3 6 9 15 17 6 0 2 1 10 17 29 15 6 3 25 6 6 8 8 5 17 14 4 1 3
0 0 0 0 0 0 0 0 5 9 18 22 21 8 1 1 11 28 7 10 11 7 6 9 10 1 1 20 17 3 3 2 7 1 9 3 4 4 7 16 8 8 6
0 2 0 0 0 0 0 0 0 2 11 25 4 2 3 1 3 5 16 13 6 3 2 2 0 0 4 2 7 9 11 9 1 7 14 5 3 5 7 3 18 17 22
0 0 0 1 0 0 0 0 0 3 6 17 13 9 8 11 10 3 4 9 8 6 0 0 0 0 0 2 0 0 0 9 2 19 2 8 0 4 10 5 5 4 4
1 0 0 1 0 0 0 12 0 1 5 11 39 14 9 1 9 7 9 3 5 4 4 0 0 0 0 0 0 0 0 0 16 15 9 4 1 7 17 9 8 2 5
2 1 0 1 1 4 0 6 6 0 1 0 10 21 21 8 6 0 4 3 0 2 3 0 0 0 0 0 0 0 0 0 1 12 7 4 3 2 7 2 2 2 5
3 8 7 4 1 4 5 2 2 5 4 0 0 9 3 2 13 21 4 0 3 3 0 0 0 0 0 0 0 0 0 0 0 14 9 10 7 3 3 2 3 0 0
4 3 5 7 3 4 6 4 3 1 0 8 0 0 0 0 7 22 5 0 0 0 0 2 0 0 0 0 0 0 0 0 0 1 12 7 7 4 14 2 1 2 1
2 6 3 3 6 5 15 6 3 2 0 10 24 4 0 0 0 4 0 0 0 0 0 0 0 0 0 0 0 0 0 0 0 0 0 17 21 8 11 3 2 3 0
0 0 2 8 6 4 8 4 0 0 0 0 11 48 22 0 2 0 0 0 0 0 0 0 0 0 0 0 0 0 0 0 0 0 0 0 5 1 0 0 7 4 0
7 6 5 9 10 7 2 1 1 0 0 0 9 51 56 26 35 0 0 0 0 0 2 0 0 0 0 0 0 0 0 0 0 0 0 0 0 0 0 0 1 0 0
2 1 0 5 8 7 3 1 0 0 0 6 21 97 66 0 0 0 0 0 0 0 3 0 0 0 0 0 0 0 0 0 0 0 0 0 0 0 0 0 0 0 0
7 8 14 14 9 0 0 0 0 1 0 0 32 62 66 41 22 0 0 0 0 0 0 0 0 0 0 0 0 0 0 0 0 0 0 0 0 0 0 0 0 0 0
4 0 0 2 0 0 0 0 0 0 0 3 19 39 62 67 81 24 5 0 0 0 0 0 0 0 0 0 0 0 0 0 0 0 0 0 0 0 0 0 0 0 0
0 0 0 1 0 1 0 0 0 0 4 16 9 20 63 91 86 33 18 6 0 0 0 0 0 0 0 0 0 0 0 0 0 0 0 0 0 0 0 0 0 0 0
0 0 0 0 0 0 0 0 2 10 1 6 9 16 41 59 82 15 12 2 0 0 0 0 0 0 0 0 0 0 0 0 0 0 0 0 0 0 0 0 0 0 0
0 0 0 0 0 0 0 0 0 14 6 9 4 4 11 1 0 1 10 9 0 0 0 0 0 0 0 0 0 0 0 0 0 0 0 0 0 0 0 0 0 0 0
5 1 0 1 6 0 0 0 0 0 0 0 0 0 0 0 0 0 0 0 0 0 0 0 0 0 0 0 0 0 0 0 0 0 0 0 0 0 0 0 0 0 0
7 1 0 0 0 0 0 0 0 0 0 0 0 0 0 0 0 0 0 0 0 0 0 0 0 0 0 0 0 0 0 0 0 0 0 0 0 0 0 0 0 0 0
8 3 0 0 2 0 0 0 0 0 0 0 0 0 0 0 0 0 0 0 0 0 0 0 0 0 0 0 0 0 0 0 0 0 0 0 0 0 0 0 0 0 0
2 2 1 0 0 0 0 0 0 0 0 0 0 0 0 0 0 0 0 0 0 0 0 0 0 0 0 0 0 0 0 0 0 0 0 0 0 0 0 0 0 0 1
CIN
-17 -0 -0 -0 -0 -0 -0 -7 -0 -0 -0 -1 -15 -3 -0 -0 -0 -0 -1 -32 -2 -0 -0 -0 -1 -1 -1 -2 -0 -0 -0 -0 -0 -0 -0 -0 -0 -0 -0 -0 -0 -0 -0
-0 -0 -0 -0 -0 -0 -1 -9 -0 -0 -0 -4 -9 -1 -0 -1 -0 -1 -7 -22 -7 -5 -1 -1 -1 -0 -1 -1 -0 -1 -1 -1 -0 -0 -0 -0 -0 -0 -0 -0 -0 -0 -0
-104 -0 -0 -0 -0 -0 -0 -1 -1 -0 -0 -5 -19 -1 -2 -1 -0 -0 -9 -3 -6 -22 -2 -0 -0 -0 -2 -1 -1 -0 -0 -1 -0 -0 -0 -0 -0 -0 -0 -0 -0 -0 -0
-1 -0 -0 -0 -0 -0 -0 -0 -0 -0 -3 -12 -12 -7 -16 -6 -0 -0 -3 -14 -2 -5 -9 -1 -3 -2 -2 -2 -1 -0 -0 -1 -0 -0 -0 -0 -0 -0 -0 -0 -0 -0 -0
-12 -0 -0 -0 -0 -0 -0 -0 -0 -0 -7 -7 -13 -10 -17 -10 -0 -0 -0 -1 -3 -1 -0 -29 -29 -16 -4 -4 -1 -1 -0 -0 -2 -0 -0 -0 -0 -0 -0 -0 -3 -4 -0
-3 -0 -0 -0 -0 -0 -0 -0 -0 -5 -1 -6 -11 -18 -24 -8 -1 -0 -1 -0 -0 -1 -4 -0 -17 -35 -18 -6 -1 -2 -0 -1 -0 -0 -0 -0 -0 -0 -0 -0 -1 -0 -0
-3 -0 -0 -0 -0 -0 -0 -0 -13 -21 -6 -2 -8 -21 -35 -23 -3 -1 -2 -0 -1 -0 -1 -2 -5 -7 -16 -11 -4 -1 -1 -0 -1 -0 -1 -0 -0 -0 -1 -0 -1 -0 -0
-0 -0 -0 -0 -0 -0 -0 -0 -3 -6 -6 -7 -9 -0 -0 -0 -19 -17 -1 -1 -0 -0 -0 -0 -0 -0 -16 -14 -16 -6 -2 -1 -1 -1 -1 -1 -0 -0 -1 -1 -2 -0 -1
-0 -0 -0 -0 -0 -0 -0 -0 -0 -4 -2 -4 -7 -1 -1 -0 -0 -13 -16 -1 -0 -1 -0 -0 -0 -0 -0 -9 -0 -0 -0 -8 -1 -3 -1 -1 -0 -0 -0 -0 -0 -0 -0
-0 -0 -0 -0 -0 -0 -0 -0 -0 -5 -3 -1 -2 -6 -1 -3 -0 -0 -0 -6 -1 -0 -1 -0 -0 -0 -0 -0 -0 -0 -0 -0 -6 -2 -2 -0 -0 -0 -1 -0 -0 -0 -0
-0 -0 -0 -0 -1 -0 -0 -0 -0 -0 -3 -0 -10 -6 -7 -7 -3 -0 -5 -1 -0 -1 -2 -0 -0 -0 -0 -0 -0 -0 -0 -0 -3 -1 -0 -0 -0 -0 -1 -0 -0 -0 -0
-0 -0 -0 -0 -0 -0 -0 -0 -0 -0 -0 -0 -0 -6 -20 -2 -6 -2 -2 -0 -0 -1 -2 -1 -0 -0 -0 -0 -0 -0 -0 -0 -0 -6 -0 -0 -0 -0 -0 -1 -0 -0 -0
-0 -0 -0 -1 -2 -2 -0 -0 -0 -0 -0 -0 -0 -0 -0 -0 -11 -7 -2 -0 -0 -1 -1 -1 -0 -0 -0 -0 -0 -0 -0 -0 -0 -2 -0 -0 -1 -0 -1 -0 -0 -0 -0
-0 -0 -1 -0 -1 -4 -25 -13 -39 -25 -9 -33 -5 -2 -0 -0 -0 -14 -0 -0 -0 -0 -0 -0 -0 -0 -0 -0 -0 -0 -0 -0 -0 -0 -0 -0 -1 -6 -2 -0 -0 -0 -0
-2 -1 -1 -0 -2 -1 -35 -46 -0 -0 -0 -0 -23 -6 -5 -0 -86 -0 -0 -0 -0 -0 -0 -0 -0 -0 -0 -0 -0 -0 -0 -0 -0 -0 -0 -0 -14 -13 -0 -0 -1 -2 -0
-1 -2 -0 -0 -1 -18 -6 -17 -24 -0 -0 -0 -31 -1 -3 -19 -9 -0 -0 -0 -0 -0 -2 -0 -0 -0 -0 -0 -0 -0 -0 -0 -0 -0 -0 -0 -0 -0 -0 -0 -3 -0 -0
-0 -1 -0 -2 -1 -0 -1 -3 -0 -0 -4 -2 -3 -0 -4 -0 -0 -0 -0 -0 -0 -0 -17 -0 -0 -0 -0 -0 -0 -0 -0 -0 -0 -0 -0 -0 -0 -0 -0 -0 -0 -0 -0
-0 -0 -1 -0 -0 -0 -0 -0 -0 -0 -0 -1 -14 -5 -5 -28 -57 -0 -0 -0 -0 -0 -1 -0 -0 -0 -0 -0 -0 -0 -0 -0 -0 -0 -0 -0 -0 -0 -0 -0 -0 -0 -0
-0 -0 -3 -3 -0 -0 -0 -0 -0 -0 -0 -3 -12 -16 -17 -15 -21 -43 -87 -0 -0 -0 -0 -0 -0 -0 -0 -0 -0 -0 -0 -0 -0 -0 -0 -0 -0 -0 -0 -0 -0 -0 -0
-0 -0 -0 -11 -9 -3 -0 -0 -0 -13 -2 -10 -24 -22 -16 -20 -28 -32 -59 -52 -0 -0 -0 -0 -0 -0 -0 -0 -0 -0 -0 -0 -0 -0 -0 -0 -0 -0 -0 -0 -0 -0 -0
-0 -0 -0 -0 -0 -0 -0 -0 -2 -21 -6 -9 -27 -34 -34 -25 -31 -53 -49 -37 -0 -0 -0 -0 -0 -0 -0 -0 -0 -0 -0 -0 -0 -0 -0 -0 -0 -0 -0 -0 -0 -0 -0
-0 -0 -1 -0 -0 -0 -0 -0 -0 -3 -7 -6 -16 -33 -36 -122 -0 -143 -59 -55 -0 -0 -0 -0 -0 -0 -0 -0 -0 -0 -0 -0 -0 -0 -0 -0 -0 -0 -0 -0 -0 -0 -0
-0 -0 -0 -0 -0 -0 -0 -0 -0 -0 -0 -0 -3 -0 -0 -0 -0 -0 -0 -0 -0 -0 -0 -0 -0 -0 -0 -0 -0 -0 -0 -0 -0 -0 -0 -0 -0 -0 -0 -0 -0 -0 -0
-0 -0 -0 -0 -1 -0 -0 -0 -0 -0 -0 -0 -0 -0 -0 -0 -0 -0 -0 -0 -0 -0 -0 -0 -0 -0 -0 -0 -0 -0 -0 -0 -0 -0 -0 -0 -0 -0 -0 -0 -0 -0 -0
-0 -0 -0 -0 -0 -0 -0 -0 -0 -0 -0 -0 -0 -0 -0 -0 -0 -0 -0 -0 -0 -0 -0 -0 -0 -0 -0 -0 -0 -0 -0 -0 -0 -0 -0 -0 -0 -0 -0 -0 -0 -0 -0
-0 -0 -0 -0 -0 -2 -0 -0 -0 -0 -0 -0 -0 -0 -0 -0 -0 -0 -0 -0 -0 -0 -0 -0 -0 -0 -0 -0 -0 -0 -0 -0 -0 -0 -0 -0 -0 -0 -0 -0 -0 -0 -0
Wind_Speed
6 7 8 8 8 8 8 7 8 7 7 7 8 6 4 6 6 6 6 8 10 11 13 13 12 11 11 11 10 10 11 12 12 11 13 13 13 15 18 18 17 18 20
9 8 6 8 8 8 7 5 7 6 6 6 5 7 5 6 6 8 6 4 8 11 12 11 11 11 9 9 9 11 12 11 11 11 11 13 11 13 15 17 17 16 18
8 9 8 5 8 8 10 9 7 7 6 8 5 6 2 7 6 7 8 6 6 9 9 11 13 10 10 7 9 9 9 9 9 9 10 11 11 10 12 14 17 15 16
8 6 5 8 5 8 8 8 7 7 5 3 5 6 2 3 6 7 7 4 5 6 7 8 9 9 8 6 7 7 7 7 7 8 9 9 9 12 11 12 13 15 16
11 9 6 4 8 6 8 8 7 8 4 3 5 6 3 3 5 5 8 7 6 5 5 9 11 9 9 7 7 7 6 6 6 7 8 8 8 10 11 10 9 12 14
11 8 6 5 6 5 7 7 9 5 7 7 7 5 2 3 5 4 5 4 5 7 7 5 5 4 8 7 7 7 4 3 5 6 7 7 9 8 10 10 10 7 8
10 10 7 7 4 4 6 7 3 8 5 6 5 6 4 4 2 4 5 4 5 3 2 4 3 5 4 10 7 4 3 1 4 4 5 6 7 6 6 8 9 9 9
11 11 11 10 11 8 2 11 7 6 6 6 5 6 4 2 2 3 3 5 7 4 4 4 3 2 6 4 7 5 4 2 1 2 6 6 5 4 6 8 10 9 11
10 12 13 11 10 9 8 10 9 9 8 7 9 5 4 5 6 5 5 5 6 5 5 5 5 3 3 2 7 6 5 1 3 2 3 5 3 4 5 5 6 7 8
12 12 12 13 13 9 11 10 10 9 8 8 6 7 6 8 6 4 6 7 7 7 7 6 5 5 4 3 5 8 6 2 4 5 4 2 3 2 6 6 7 6 6
11 12 13 13 13 11 13 14 13 13 9 9 6 5 5 5 6 5 5 6 8 7 5 6 6 5 5 4 3 5 7 4 5 5 5 4 3 3 3 3 4 3 5
8 11 12 13 14 13 13 13 15 16 13 11 9 7 5 6 3 2 2 7 8 8 6 5 6 5 5 4 6 7 10 8 7 7 8 6 6 5 4 4 4 3 2
7 10 13 11 10 14 14 14 15 15 15 13 15 11 9 7 4 5 3 3 3 2 4 7 6 5 6 6 6 8 9 9 9 8 8 9 8 6 5 4 3 3 2
10 12 12 13 13 14 14 14 11 11 13 13 12 11 9 9 5 4 4 4 2 2 4 4 6 6 5 5 6 12 5 10 9 9 8 10 7 6 3 7 5 5 3
9 12 15 15 15 14 15 14 11 14 14 15 14 11 7 8 8 6 5 5 3 4 5 4 3 6 5 5 6 6 6 10 11 10 8 8 4 10 8 5 6 8 5
9 11 14 15 15 16 16 15 12 13 15 12 11 14 12 6 6 7 4 5 3 2 2 2 3 3 5 5 6 7 7 8 11 11 10 9 6 10 10 8 8 12 10
11 11 12 14 16 16 16 16 15 13 15 14 13 14 14 9 5 3 4 3 4 3 3 2 2 5 4 5 4 4 4 5 4 11 11 10 10 10 10 10 9 13 13
10 11 12 13 12 12 12 12 12 11 12 13 13 14 16 9 12 10 7 6 5 5 4 5 3 3 3 5 5 6 5 4 5 9 13 12 11 11 12 11 10 13 12
8 9 9 9 10 12 13 13 13 11 12 14 14 14 13 11 12 8 10 8 6 4 4 3 3 2 2 3 1 2 4 4 4 6 12 13 13 13 12 13 12 13 13
8 8 10 10 9 10 12 14 14 11 12 13 13 13 13 14 13 11 9 10 8 7 5 4 3 3 3 2 2 3 3 4 4 6 7 6 9 12 13 15 14 13 13
7 8 8 8 10 10 9 13 12 15 12 12 12 15 14 13 13 12 9 10 10 8 6 6 4 3 4 3 4 4 4 4 5 4 4 5 6 6 8 13 11 15 14
6 6 7 8 9 7 10 11 10 10 12 13 13 12 12 11 12 11 14 13 13 11 9 7 6 7 8 5 4 4 4 3 3 6 6 5 5 7 6 7 14 14 16
8 7 7 9 10 10 15 14 13 8 9 10 10 10 9 6 9 10 11 11 10 12 11 10 9 10 8 8 6 5 5 4 3 2 4 4 4 7 6 5 13 16 16
8 7 7 7 7 8 14 15 14 11 10 11 12 13 12 11 12 12 10 9 9 8 9 5 8 5 5 5 8 6 7 5 3 3 3 3 2 3 3 3 10 13 15
8 7 8 9 10 7 14 16 15 10 9 10 8 8 8 8 10 12 10 10 9 8 6 9 7 5 4 7 7 5 3 4 3 3 3 2 2 1 1 2 3 10 11
8 7 7 8 10 8 13 16 15 7 7 6 5 6 9 8 12 15 10 9 8 7 6 5 4 3 6 6 11 6 6 3 3 1 4 5 3 3 3 0 1 2 5
Wind_Direction
174 164 166 172 158 194 177 190 183 200 182 170 138 206 130 121 114 121 104 66 107 109 111 107 97 100 85 83 74 80 69 67 62 49 55 53 51 52 44 52 58 66 68
182 176 176 173 169 184 153 204 186 186 184 132 143 173 173 114 124 113 112 95 126 119 118 111 109 100 88 90 77 67 66 63 61 60 52 46 45 57 50 48 52 62 72
182 170 178 167 172 178 158 214 186 182 187 140 152 141 213 139 132 138 124 139 113 90 100 114 110 103 91 94 85 75 74 61 64 65 61 47 50 44 54 54 48 59 70
170 157 176 181 171 174 162 201 182 190 175 127 142 150 196 142 150 143 126 153 142 118 87 99 99 111 109 93 97 81 77 77 74 63 61 60 53 50 37 48 54 53 66
178 177 174 168 177 185 166 187 192 189 159 162 143 153 185 146 136 149 161 159 114 128 116 101 97 73 104 106 89 86 72 64 50 66 64 63 58 51 53 44 47 57 55
174 165 163 168 154 196 173 177 196 161 188 159 150 145 27 156 145 168 143 144 164 152 149 139 135 103 101 101 107 96 84 86 81 85 69 59 52 48 47 54 55 43 50
166 169 170 148 152 183 173 159 146 140 185 167 115 102 47 19 232 165 170 177 147 172 155 160 176 145 119 108 106 93 112 110 48 81 101 67 61 61 45 66 60 54 60
176 175 172 167 172 166 138 168 153 154 181 183 148 139 163 191 273 204 196 180 175 167 175 193 183 227 143 163 120 98 94 133 152 99 116 89 67 80 63 69 71 67 60
175 172 170 170 173 171 173 166 169 181 178 184 185 176 147 204 155 182 211 209 197 177 180 186 208 208 176 146 140 129 120 335 234 208 128 122 86 86 99 86 82 72 61
177 178 176 177 174 179 174 181 171 179 184 187 218 202 226 126 192 175 200 208 209 206 189 178 196 194 219 226 132 104 148 170 292 248 180 159 140 152 104 97 81 75 77
180 182 179 181 187 189 190 184 179 186 188 178 197 186 230 179 195 204 163 194 216 214 217 194 182 185 195 191 190 176 168 210 252 236 199 217 201 176 138 137 117 71 57
183 187 191 190 189 194 194 192 188 190 191 192 183 195 196 178 192 188 272 169 197 204 203 200 196 185 176 184 201 184 178 196 232 266 226 220 220 198 189 158 132 113 97
191 196 192 196 197 196 200 195 196 197 195 197 196 198 180 205 166 196 237 113 162 130 193 213 209 190 183 186 190 177 191 197 212 237 241 229 215 216 197 206 192 168 151
199 206 205 203 203 210 205 200 198 202 203 203 209 191 208 183 162 150 179 157 144 145 209 186 202 198 186 186 185 183 191 197 208 224 243 241 193 158 176 223 216 198 183
189 197 212 209 206 210 211 199 205 200 203 203 206 213 192 207 174 173 185 187 197 177 185 178 167 198 187 176 177 174 203 188 205 211 233 261 252 169 174 211 210 171 179
221 201 203 208 209 207 210 206 208 205 203 204 201 200 198 188 203 166 206 172 194 207 299 127 196 146 180 180 174 188 207 184 198 211 215 239 222 202 187 194 188 163 172
217 216 212 212 212 213 209 206 205 203 204 195 198 200 196 181 180 172 155 182 182 179 213 104 116 142 160 170 181 196 216 183 195 210 215 221 230 209 199 198 198 176 177
230 221 216 213 211 202 186 188 191 187 189 184 194 200 195 191 182 181 185 195 190 174 190 208 147 139 176 184 177 179 209 205 203 201 207 219 224 216 202 200 201 189 186
197 195 197 194 187 190 182 184 186 182 193 196 193 197 206 190 207 185 178 197 193 181 184 186 183 117 120 143 132 174 199 207 224 230 200 212 220 220 203 197 202 197 194
197 187 193 196 193 194 190 191 193 192 200 197 200 199 200 201 200 191 188 197 184 187 168 188 188 142 143 153 195 150 205 218 212 222 213 207 215 218 208 202 201 198 199
193 196 195 193 195 198 194 194 198 191 192 196 200 204 206 203 186 194 187 197 187 187 177 188 188 167 164 169 192 183 200 183 212 207 207 212 212 210 210 209 206 199 204
183 186 195 189 186 191 190 194 204 198 191 198 198 194 201 193 188 182 193 197 189 179 188 185 186 201 204 197 177 178 172 170 227 187 201 225 186 225 216 208 206 199 202
189 182 193 209 214 204 182 194 190 193 186 187 189 187 189 193 179 190 200 189 185 190 190 187 191 205 206 201 152 183 185 173 200 156 183 231 172 227 217 213 209 203 202
210 190 191 203 223 213 192 186 185 187 189 192 187 188 184 185 187 186 190 194 200 200 206 191 203 201 193 173 179 185 185 189 85 114 176 233 99 218 220 205 211 212 211
209 199 196 203 206 206 189 193 176 198 194 198 182 179 179 186 185 179 181 188 196 210 196 198 209 197 147 158 153 113 148 135 193 216 197 168 196 227 285 251 227 232 225
199 187 184 193 204 207 182 179 181 194 184 188 184 183 181 186 169 173 179 171 189 200 165 170 199 187 167 155 156 168 149 165 125 351 212 173 139 169 286 231 298 217 231